K1ADM Weather Reports


time (UTC)temp
C
wind
direction
speed
KPH
gust
KPH
rain 1hr
cm
rain 24hr
cm
rain mn
cm
humidity
%
barometer
mb
20260504231502 17 180 0.0 0.0 0.00 0.03 0.03 54 1004.6
20260504230502 17 180 0.0 0.0 0.00 0.03 0.03 55 1004.4
20260504225501 17 180 0.0 0.0 0.00 0.03 0.03 54 1004.3
20260504225002 17 195 0.0 1.6 0.00 0.03 0.03 53 1004.4
20260504224502 17 204 1.6 4.8 0.00 0.03 0.03 53 1004.4
20260504224001 17 253 0.0 8.0 0.00 0.03 0.03 52 1004.4
20260504223501 18 50 0.0 1.6 0.00 0.03 0.03 53 1004.4
20260504223002 18 292 0.0 3.2 0.00 0.03 0.03 54 1004.4
20260504222501 18 346 3.2 4.8 0.00 0.03 0.03 52 1004.3
20260504222002 18 162 1.6 1.6 0.00 0.03 0.03 52 1004.3
20260504221501 18 274 1.6 3.2 0.00 0.03 0.03 51 1004.3
20260504221001 18 237 0.0 1.6 0.00 0.03 0.03 52 1004.4
20260504220502 18 183 4.8 4.8 0.00 0.03 0.03 51 1004.4
20260504220002 18 252 1.6 3.2 0.00 0.03 0.03 52 1004.4
20260504215501 17 261 1.6 4.8 0.00 0.03 0.03 55 1004.4
20260504215001 17 217 3.2 8.0 0.00 0.03 0.03 54 1004.5
20260504214002 17 268 4.8 12.9 0.00 0.03 0.03 52 1004.5
20260504213001 18 270 8.0 14.5 0.00 0.03 0.03 51 1004.5
20260504212502 17 273 3.2 12.9 0.00 0.03 0.03 53 1004.3
20260504212002 17 293 8.0 14.5 0.00 0.03 0.03 51 1004.3
20260504211002 18 329 8.0 19.3 0.00 0.03 0.03 51 1004.1
20260504210502 18 292 4.8 11.3 0.00 0.03 0.03 52 1004.1
20260504210002 18 282 9.7 11.3 0.00 0.03 0.03 51 1004.1
20260504205001 18 270 16.1 22.5 0.00 0.03 0.03 51 1004.1
20260504204502 18 274 9.7 16.1 0.00 0.03 0.03 53 1004.2
20260504203501 17 22 11.3 16.1 0.00 0.03 0.03 52 1004.1
20260504203002 17 292 14.5 24.1 0.00 0.03 0.03 52 1004.1
20260504202502 17 275 14.5 22.5 0.00 0.03 0.03 52 1004.2
20260504202002 17 290 14.5 25.7 0.00 0.03 0.03 52 1004.2
20260504201002 17 280 11.3 22.5 0.00 0.03 0.03 52 1004.1
20260504200002 17 301 9.7 19.3 0.00 0.03 0.03 53 1004.1
20260504195502 18 257 8.0 14.5 0.00 0.03 0.03 52 1004.1
20260504195002 17 248 9.7 20.9 0.00 0.03 0.03 53 1004.3
20260504194502 18 280 9.7 20.9 0.00 0.03 0.03 53 1004.3
20260504194002 18 248 8.0 9.7 0.00 0.03 0.03 57 1004.3
20260504193501 17 270 4.8 11.3 0.00 0.03 0.03 58 1004.4
20260504193002 17 172 6.4 12.9 0.00 0.03 0.03 58 1004.4
20260504192002 17 277 8.0 11.3 0.00 0.03 0.03 60 1004.3
20260504191502 16 259 8.0 11.3 0.00 0.03 0.03 63 1004.3
20260504191002 16 270 8.0 14.5 0.00 0.03 0.03 63 1004.5
20260504190502 16 264 8.0 14.5 0.00 0.03 0.03 63 1004.5
20260504190002 16 271 6.4 12.9 0.00 0.03 0.03 65 1004.7
20260504185503 16 283 8.0 12.9 0.00 0.03 0.03 66 1004.7
20260504185002 15 270 9.7 19.3 0.00 0.03 0.03 67 1004.8
20260504184502 15 318 11.3 24.1 0.00 0.03 0.03 68 1004.9
20260504183502 14 270 3.2 9.7 0.00 0.03 0.03 73 1005.0
20260504183002 14 270 4.8 9.7 0.03 0.03 0.03 73 1005.0
20260504182002 13 278 3.2 9.7 0.03 0.03 0.03 76 1005.0
20260504181502 13 274 4.8 8.0 0.03 0.03 0.03 76 1005.0
20260504181002 13 294 4.8 9.7 0.03 0.03 0.03 76 1004.9
20260504180502 13 298 8.0 11.3 0.03 0.03 0.03 77 1004.9
20260504180002 12 279 8.0 12.9 0.03 0.03 0.03 77 1005.2
20260504175502 12 270 8.0 11.3 0.03 0.03 0.03 79 1005.2
20260504175002 12 270 4.8 9.7 0.03 0.03 0.03 80 1005.2
20260504174502 11 280 4.8 9.7 0.03 0.03 0.03 82 1005.3
20260504174002 11 203 4.8 9.7 0.03 0.03 0.03 82 1005.3
20260504173502 11 270 8.0 9.7 0.03 0.03 0.03 83 1005.3
20260504173002 11 270 8.0 9.7 0.00 0.00 0.00 81 1005.3
20260504172002 12 288 8.0 14.5 0.00 0.00 0.00 78 1005.0
20260504171502 12 270 8.0 11.3 0.00 0.00 0.00 76 1004.9
20260504171002 13 279 9.7 14.5 0.00 0.00 0.00 73 1004.8
20260504170503 13 263 9.7 12.9 0.00 0.00 0.00 68 1004.8
20260504151002 14 236 3.2 4.8 0.00 0.15 0.00 60 1005.0
20260504150502 15 202 4.8 8.0 0.00 0.15 0.00 59 1005.0
20260504141003 13 274 3.2 8.0 0.00 0.25 0.00 59 1006.0
20260504140502 13 146 3.2 8.0 0.00 0.28 0.00 61 1006.0
20260504130503 11 264 0.0 0.0 0.00 0.36 0.00 61 1006.7
20260504110502 6 221 0.0 0.0 0.00 0.41 0.00 70 1006.9
20260504100503 3 205 0.0 0.0 0.00 0.41 0.00 77 1006.7
20260504081503 3 255 0.0 0.0 0.00 0.51 0.00 78 1006.4
20260504081003 3 244 0.0 0.0 0.00 0.51 0.00 78 1006.5
20260504050503 5 248 0.0 0.0 0.00 0.53 0.00 71 1006.2
20260504050003 5 251 0.0 0.0 0.00 0.53 0.00 71 1006.1
20260504045504 5 240 0.0 0.0 0.00 0.53 0.00 71 1006.1
20260504045003 5 248 0.0 0.0 0.00 0.53 0.00 71 1006.1
20260504044504 5 253 0.0 0.0 0.00 0.53 0.00 71 1006.1
20260504044003 5 261 0.0 0.0 0.00 0.53 0.00 70 1006.1
20260504043003 5 257 0.0 3.2 0.00 0.53 0.00 70 1006.1
20260504042504 5 248 3.2 4.8 0.00 0.53 0.00 70 1006.1
20260504042003 5 262 3.2 4.8 0.00 0.53 0.00 71 1006.1
20260504041004 5 261 3.2 4.8 0.00 0.53 0.00 70 1006.1
20260504040003 5 248 3.2 4.8 0.00 0.53 0.00 69 1005.8
20260504035503 5 253 3.2 4.8 0.00 0.53 0.53 70 1005.8
20260504035003 5 261 1.6 3.2 0.00 0.53 0.53 70 1005.8
20260504034503 5 270 0.0 0.0 0.00 0.53 0.53 71 1005.8
20260504033503 5 268 1.6 3.2 0.00 0.53 0.53 70 1005.8
20260504033004 5 270 3.2 4.8 0.00 0.53 0.53 70 1005.8
20260504032503 5 248 3.2 4.8 0.00 0.53 0.53 70 1005.7
20260504032004 5 270 3.2 4.8 0.00 0.53 0.53 69 1005.7
20260504031503 5 270 3.2 3.2 0.00 0.53 0.53 69 1005.7
20260504031004 5 270 3.2 3.2 0.00 0.53 0.53 68 1005.7
20260504030504 5 270 1.6 8.0 0.00 0.53 0.53 67 1005.7
20260504030004 6 270 4.8 4.8 0.00 0.53 0.53 67 1005.6
20260504025503 6 270 4.8 4.8 0.00 0.53 0.53 66 1005.6
20260504024504 6 270 4.8 4.8 0.00 0.53 0.53 66 1005.5
20260504023503 6 263 0.0 0.0 0.00 0.53 0.53 68 1005.6
20260504023004 6 270 0.0 0.0 0.00 0.53 0.53 65 1005.6
20260504022004 6 270 0.0 0.0 0.00 0.56 0.53 65 1005.6
20260504021501 6 270 0.0 3.2 0.00 0.58 0.53 64 1005.6
20260504020501 6 270 4.8 11.3 0.00 0.61 0.53 62 1005.5
20260504020001 6 281 8.0 9.7 0.00 0.64 0.53 62 1005.2
20260504015501 6 270 6.4 9.7 0.00 0.64 0.53 62 1005.2
20260504015001 7 277 8.0 12.9 0.00 0.64 0.53 60 1005.3
20260504014501 6 270 6.4 9.7 0.00 0.64 0.53 61 1005.3
20260504014002 7 289 4.8 9.7 0.00 0.64 0.53 61 1005.3
20260504013501 7 270 8.0 9.7 0.00 0.64 0.53 61 1005.1
20260504013001 7 270 8.0 16.1 0.00 0.64 0.53 58 1005.1
20260504012502 7 270 8.0 11.3 0.00 0.64 0.53 60 1004.9
20260504012001 7 285 8.0 11.3 0.00 0.64 0.53 61 1004.9
20260504011501 7 285 6.4 9.7 0.00 0.64 0.53 61 1004.9
20260504011002 7 281 3.2 8.0 0.00 0.64 0.53 61 1004.9
20260504010501 7 270 4.8 8.0 0.00 0.64 0.53 58 1004.9
20260504010002 7 292 16.1 16.1 0.00 0.66 0.53 56 1004.6
20260504004501 7 292 8.0 12.9 0.00 0.66 0.53 57 1004.4
20260504003501 7 290 8.0 12.9 0.00 0.66 0.53 58 1004.2
20260504003001 7 270 8.0 11.3 0.00 0.66 0.53 56 1004.2
20260504001501 8 270 8.0 14.5 0.00 0.66 0.53 54 1004.1
20260504001002 8 258 6.4 12.9 0.00 0.66 0.53 54 1003.8
20260504000502 8 270 4.8 8.0 0.00 0.66 0.53 54 1003.8
20260504000002 8 283 9.7 14.5 0.00 0.69 0.53 54 1003.7
20260503235502 8 337 8.0 12.9 0.00 0.69 0.53 53 1003.7
20260503235002 8 270 9.7 11.3 0.00 0.69 0.53 54 1003.6
20260503234501 8 270 4.8 14.5 0.00 0.69 0.53 53 1003.6
20260503233501 8 270 8.0 19.3 0.00 0.69 0.53 53 1003.4
20260503233001 8 283 9.7 19.3 0.00 0.69 0.53 51 1003.4
20260503232502 9 278 14.5 19.3 0.00 0.71 0.53 50 1003.2
20260503232002 9 270 12.9 20.9 0.00 0.71 0.53 49 1003.2